TIANWANG 1C (TW-1C)
1 40926U 15051B   18120.39985325  .00007439  00000-0  14240-3 0  9996
2 40926  97.1888 162.9752 0012100  92.6467  43.1438 15.48265659145918
TIANWANG 1B (TW-1B)
1 40927U 15051C   18120.38072278  .00006917  00000-0  13821-3 0  9994
2 40927  97.1973 162.8150 0012005 102.4984  20.9411 15.47049736145822
TIANWANG 1A (TW-1A)
1 40928U 15051D   18120.47236668  .00002902  00000-0  78407-4 0  9992
2 40928  97.1898 155.3991 0013419 128.1249 340.8837 15.38459718145447
LAPAN A2
1 40931U 15052B   18119.22355493  .00000875  00000-0  32900-4 0  9991
2 40931   6.0053 139.2324 0013226  33.8420 326.2455 14.76575361139758
LQSAT
1 40958U 15057A   18120.41192886  .00000029  00000-0  12153-4 0  9992
2 40958  97.9424 194.5974 0019192 127.0156 233.2809 14.73027769137819
CHUBUSAT 2
1 41338U 16012B   18119.80190442 +.00000311 +00000-0 +17593-4 0  9991
2 41338 031.0031 261.0577 0014008 313.9056 046.0422 14.99963558120568
CHUBUSAT 3
1 41339U 16012C   18120.42056874  .00000309  00000-0  17314-4 0  9990
2 41339  31.0114 255.7946 0013861 325.7668  34.2077 15.00152850120649
OUFTI-1
1 41458U 16025C   18120.42118783  .00001238  00000-0  69176-4 0  9999
2 41458  98.1414 180.7104 0168608 308.2935  50.3219 15.04526597110254
E-STAR-2
1 41459U 16025D   18120.41973147  .00001158  00000-0  65327-4 0  9997
2 41459  98.1409 180.5696 0169507 308.9333  49.6874 15.04269481110244
AAUSAT 4
1 41460U 16025E   18120.37635017  .00001859  00000-0  10067-3 0  9993
2 41460  98.1339 180.9480 0161439 305.2089  53.4117 15.05642304110295
NUSAT 1
1 41557U 16033B   18120.17283323  .00001111  00000-0  43100-4 0  9992
2 41557  97.4367 204.4815 0012912 333.7729  26.2855 15.28212354106821
BEESAT 4
1 41619U 16040W   18119.81394017 +.00001261 +00000-0 +58217-4 0  9992
2 41619 097.4188 183.6223 0012788 046.6511 313.5788 15.21980800090732
PRATHAM
1 41783U 16059A   18119.91723389 +.00000066 +00000-0 +22169-4 0  9992
2 41783 098.1217 182.2457 0032377 246.1316 113.6492 14.62916190084903
ALSAT 1N
1 41789U 16059G   18120.46189750  .00000096  00000-0  27370-4 0  9990
2 41789  98.1227 183.9071 0027121 236.2516 123.6103 14.64146654 85030
NAYIF 1
1 42017U 17008BX  18119.91442802 +.00001388 +00000-0 +59766-4 0  9997
2 42017 097.4519 185.2528 0006541 175.0347 185.0956 15.24285095066710
LILACSAT-1
1 42725U 98067ME  18120.51165548  .00018905  00000-0  17732-3 0  9993
2 42725  51.6366 240.8704 0004351  40.1986 319.9332 15.67221736 53047
MAX VALIER SAT
1 42778U 17036P   18119.90021838 +.00000862 +00000-0 +41698-4 0  9994
2 42778 097.4078 180.4057 0011335 233.8770 126.1417 15.21199518047165
